SCP
0 0 0 0 0 0 0 0 0 0 0 0 0 0 0 0 0 0 0 0 0 1 1 1 2 2 2 2 2 1 1 1 2 2 2 2 1 1 1 1 1 0 0 0
0 0 0 0 0 0 0 0 0 0 0 0 0 0 0 0 0 0 0 0 0 1 1 1 2 2 2 2 2 2 2 2 3 4 3 3 2 2 1 1 1 1 0 0
0 0 0 0 0 0 0 0 0 0 0 0 0 0 0 0 0 0 0 0 0 1 1 1 2 3 3 3 3 2 3 3 5 5 4 4 3 3 2 2 1 1 1 1
0 0 0 0 0 0 0 0 0 0 0 0 0 0 0 0 0 0 0 0 0 0 1 1 2 3 3 3 3 3 4 5 6 6 5 4 4 3 3 2 2 1 1 1
0 0 0 0 0 0 0 0 0 0 0 0 0 0 0 0 0 0 0 0 0 0 1 1 2 3 3 3 3 4 5 6 7 6 6 5 4 4 3 3 2 2 1 1
0 0 0 0 0 0 0 0 0 0 0 0 0 0 0 0 0 0 0 0 0 0 0 1 1 2 3 3 3 4 6 7 7 7 6 5 4 4 4 3 2 2 1 1
0 0 0 0 0 0 0 0 0 0 0 0 0 0 0 0 0 0 0 0 0 0 1 1 1 2 2 3 3 4 5 7 7 6 5 4 3 3 3 3 3 2 1 1
0 0 0 0 0 0 0 0 0 0 0 0 0 0 0 0 0 0 0 0 0 0 0 1 1 1 2 3 3 4 5 5 5 3 3 2 2 3 3 3 2 2 1 1
0 0 0 0 0 0 0 0 0 0 0 0 0 0 0 0 0 0 0 0 0 0 0 0 1 1 1 2 3 3 3 3 2 2 2 2 2 2 2 2 2 2 1 1
0 0 0 0 0 0 0 0 0 0 0 0 0 0 0 0 0 0 0 0 0 0 0 0 0 0 0 1 1 1 1 1 1 1 1 2 2 2 1 1 1 1 1 1
0 0 0 0 0 0 0 0 0 0 0 0 0 0 0 0 0 0 0 0 0 0 0 0 0 0 0 0 0 0 0 0 0 0 1 1 1 1 1 1 1 1 0 0
0 0 0 0 0 0 0 0 0 0 0 0 0 0 0 0 0 0 0 0 0 0 0 0 0 0 0 0 0 0 0 0 0 0 0 1 1 1 0 0 0 0 0 0
0 0 0 0 0 0 0 0 0 0 0 0 0 0 0 0 0 0 0 0 0 0 0 0 0 0 0 0 0 0 0 0 0 0 0 0 0 0 0 0 0 0 0 0
0 0 0 0 0 0 0 0 0 0 0 0 0 0 0 0 0 0 0 0 0 0 0 0 0 0 0 0 0 0 0 0 0 0 0 0 0 0 0 0 0 0 0 0
0 0 0 0 0 0 0 0 0 0 0 0 0 0 0 0 0 0 0 0 0 0 0 0 0 0 0 0 0 0 0 0 0 0 0 0 0 0 0 0 0 0 1 0
0 0 0 0 0 0 0 0 0 0 0 0 0 0 0 0 0 0 0 0 0 0 0 0 0 0 0 0 0 0 0 0 0 0 0 0 0 0 0 0 1 1 1 1
0 0 0 0 0 0 0 0 0 0 0 0 0 0 0 0 0 0 0 0 0 0 0 0 0 0 0 0 0 0 0 0 0 0 0 0 0 0 0 0 1 1 1 1
0 0 0 0 0 0 0 0 0 0 0 0 0 0 0 0 0 0 0 0 0 0 0 0 0 0 0 0 0 0 0 0 0 0 0 0 0 0 0 0 0 1 1 1
0 0 0 0 0 0 0 0 0 0 0 0 0 0 0 0 0 0 0 0 0 0 0 0 0 0 0 0 0 0 0 0 0 0 0 0 0 0 0 0 0 0 1 1
0 0 0 0 0 0 0 0 0 0 0 0 0 0 0 0 0 0 0 0 0 0 0 0 0 0 0 0 0 0 0 0 0 0 0 0 0 0 0 0 0 0 0 0
0 0 0 0 0 0 0 0 0 0 0 0 0 0 0 0 0 0 0 0 0 0 0 0 0 0 0 0 0 0 0 0 0 0 0 0 0 0 0 0 0 0 0 0
0 0 0 0 0 0 0 0 0 0 0 0 0 0 0 0 0 0 0 0 0 0 0 0 0 0 0 0 0 0 0 0 0 0 0 0 0 0 0 0 0 0 0 0
0 0 0 0 0 0 0 0 0 0 0 0 0 0 0 0 0 0 0 0 0 0 0 0 0 0 0 0 0 0 0 0 0 0 0 0 0 0 0 0 0 0 0 0
0 0 0 0 0 0 0 0 -0 0 0 0 0 0 0 0 0 0 0 0 0 0 0 0 0 0 0 0 0 0 0 0 0 0 0 0 0 0 0 0 0 0 0 0
0 0 0 0 0 0 0 0 -0 -0 -0 0 0 0 0 0 0 0 0 0 0 0 0 0 0 0 0 0 0 0 0 0 0 0 0 0 0 0 0 0 0 0 0 0
0 0 0 0 0 0 0 0 -0 -0 -0 -0 0 0 0 0 0 0 0 0 0 0 0 0 0 0 0 0 0 0 0 0 0 0 0 0 0 0 0 0 0 0 0 0
Wind_Speed
1 1 5 6 5 6 6 7 7 4 3 4 4 1 3 6 8 9 10 10 11 11 10 9 8 8 9 12 14 14 14 14 12 9 9 8 8 7 7 7 9 10 9 9
3 7 7 5 4 4 5 7 6 3 2 5 6 4 3 5 8 9 11 11 12 13 13 11 10 8 8 10 13 15 15 15 14 11 10 8 7 6 6 5 7 10 11 10
7 7 6 4 7 7 4 5 7 8 6 7 8 9 7 4 4 8 10 11 12 13 14 14 13 11 9 9 11 12 14 14 14 13 8 6 5 4 4 6 6 8 10 9
7 8 7 7 9 11 7 7 9 10 10 8 7 9 6 2 2 9 12 13 14 14 14 13 14 13 12 10 9 10 11 12 12 12 10 10 5 4 3 3 4 6 8 8
7 9 11 11 11 11 10 12 13 13 13 13 11 11 4 2 5 11 13 14 14 14 14 14 14 13 12 11 7 4 5 8 10 10 10 8 4 2 1 0 3 4 6 7
9 7 9 11 9 7 12 13 13 11 10 14 13 12 2 6 9 13 14 15 15 14 14 13 13 12 11 10 6 2 4 7 9 10 9 9 8 5 2 1 2 3 4 5
4 9 8 11 12 9 12 12 7 7 8 7 2 4 7 8 9 11 14 15 14 13 13 12 13 11 10 9 7 4 6 8 9 11 11 10 9 6 2 1 3 4 4 4
7 7 10 11 11 11 10 9 7 7 6 3 1 2 7 7 9 11 12 13 14 14 13 12 11 9 8 8 7 6 7 8 9 9 10 10 8 5 1 2 3 4 3 4
7 6 7 8 9 10 10 8 7 8 9 7 1 5 4 12 14 16 16 16 16 15 13 10 9 8 7 8 8 8 9 9 8 8 8 8 6 4 1 2 4 3 4 3
6 3 6 6 7 10 8 8 6 5 5 4 0 5 8 17 18 17 17 17 16 14 12 9 8 8 8 8 8 8 8 8 8 7 6 5 5 3 1 3 5 5 6 5
6 4 4 6 10 12 10 7 6 5 4 4 2 4 7 12 13 14 15 15 15 13 11 9 8 8 8 7 8 8 7 7 6 6 5 4 3 1 3 5 6 5 5 6
4 5 3 5 4 6 7 7 6 4 4 4 2 3 7 10 11 12 14 15 14 14 12 11 10 9 8 8 7 7 6 5 4 4 3 2 2 4 6 7 6 5 5 5
3 5 1 4 2 8 7 11 7 3 2 3 3 4 8 12 13 14 14 14 13 14 13 12 11 11 10 9 8 7 6 4 3 2 0 2 4 5 5 4 3 4 5 6
3 4 6 5 4 5 7 12 12 7 4 4 6 7 12 15 15 15 14 13 12 12 12 13 12 11 11 10 9 8 7 5 3 2 1 1 1 1 1 1 1 3 4 5
2 4 6 6 4 4 8 10 11 11 8 6 7 7 10 13 12 12 11 11 11 12 12 13 12 11 10 10 10 10 9 7 6 5 5 4 4 3 2 1 1 2 3 4
1 4 5 5 2 2 6 9 9 8 8 7 7 7 9 10 9 10 11 11 11 12 12 12 12 12 12 12 11 11 10 10 9 9 8 7 6 6 5 4 4 2 1 2
1 4 3 3 2 4 3 6 6 5 5 6 6 5 9 9 10 10 10 10 11 11 10 11 11 11 11 11 11 11 10 10 10 10 9 8 8 8 7 6 6 5 4 3
2 3 1 1 3 1 5 2 2 2 2 3 4 6 7 8 7 5 8 10 10 11 10 10 9 9 9 9 9 9 9 10 10 10 10 9 8 8 8 8 7 6 6 6
1 2 2 2 1 3 2 3 1 2 1 1 3 6 7 8 2 7 11 11 10 10 9 8 8 8 9 9 9 9 10 10 10 10 10 9 9 9 9 9 8 7 6 6
2 3 3 3 3 1 5 5 1 4 2 3 2 5 7 7 4 8 12 12 11 9 8 8 8 8 8 8 8 8 9 10 10 9 9 9 9 8 8 8 8 6 6 6
4 4 4 4 2 3 6 5 4 4 5 3 2 4 6 8 7 9 11 10 9 8 8 8 7 7 7 7 7 8 9 9 8 7 7 7 7 7 7 7 7 6 6 6
4 4 4 4 3 3 8 6 5 3 4 1 2 4 6 7 8 8 9 9 9 9 8 8 7 7 6 6 6 6 6 5 5 5 5 6 7 6 6 7 7 7 6 6
5 3 2 3 2 5 7 4 1 0 1 1 2 4 6 7 7 9 9 9 9 9 8 8 8 7 6 5 5 5 4 2 2 3 4 4 5 5 6 6 6 6 6 6
4 3 5 6 6 6 7 6 5 3 2 1 3 4 5 6 8 9 9 9 9 9 9 8 8 8 7 6 5 4 2 1 1 3 4 4 5 5 6 5 5 5 6 6
5 7 6 6 4 6 9 9 7 5 3 2 2 3 4 6 7 8 8 9 9 9 8 8 8 8 8 7 5 3 2 2 1 2 3 4 5 5 5 5 5 5 6 6
8 9 7 5 8 7 8 11 10 7 5 3 1 2 3 4 7 8 8 8 8 9 9 9 9 8 9 8 6 3 2 2 2 2 4 3 4 4 4 4 5 4 4 6
Wind_Direction
36 25 23 5 348 318 304 285 278 290 341 289 269 241 79 58 43 31 22 12 6 358 349 344 325 298 276 253 238 230 219 211 206 194 196 194 198 203 206 209 213 215 221 226
168 52 21 14 5 313 297 285 289 292 322 286 268 247 126 80 52 31 16 7 3 355 350 351 340 322 292 267 248 235 222 215 205 197 195 194 192 200 205 210 215 220 223 223
60 33 10 10 12 334 309 315 310 299 293 252 262 239 185 134 67 35 18 7 2 357 348 347 344 335 315 288 263 243 230 214 203 193 184 170 162 162 180 206 214 220 225 227
67 34 17 18 20 346 311 344 308 289 274 260 246 266 186 136 48 20 8 1 356 353 348 345 341 337 329 314 288 255 231 210 191 181 176 170 172 179 195 201 211 213 216 219
66 33 25 20 6 347 332 318 294 280 270 267 242 255 197 74 5 1 357 353 349 347 344 342 340 337 336 331 316 275 208 177 165 164 162 148 126 109 71 18 236 217 211 214
78 55 31 5 346 346 325 301 275 253 252 250 243 239 156 37 359 348 347 347 345 343 340 341 340 342 345 348 351 13 132 139 144 142 133 120 111 93 68 312 251 224 207 207
79 65 33 3 348 350 347 330 288 247 227 243 232 234 77 40 7 349 341 341 342 341 338 340 342 344 351 359 14 50 101 111 117 121 116 108 101 87 61 301 246 228 210 200
360 37 28 15 6 338 344 337 324 299 291 299 229 129 91 34 8 356 348 345 344 344 341 342 345 352 4 15 27 60 84 96 105 112 112 105 98 90 57 293 255 237 224 202
5 37 43 26 18 4 340 344 331 294 288 278 223 102 102 10 5 359 354 351 348 344 342 351 1 14 28 32 39 61 73 82 87 94 98 95 91 87 48 291 254 240 218 191
355 11 41 23 5 24 356 327 311 300 302 283 47 62 10 353 349 346 349 348 343 343 350 2 17 30 44 44 44 49 57 69 76 76 78 78 68 60 349 278 253 229 210 184
344 356 53 46 25 4 359 351 329 302 296 314 353 56 9 343 342 343 347 349 347 353 3 13 24 29 35 37 40 42 44 46 54 59 57 52 41 330 265 254 246 226 208 190
357 325 58 79 67 23 14 355 336 338 354 351 347 48 1 351 356 359 357 358 1 8 15 19 22 23 25 22 23 28 30 27 27 36 39 11 285 258 249 243 232 216 208 203
359 326 282 150 107 23 13 12 7 342 335 6 7 31 8 9 11 8 4 5 10 15 19 21 23 22 17 14 15 19 15 4 4 14 357 262 254 250 248 241 223 217 209 208
307 40 40 52 39 5 13 18 22 24 12 22 24 6 8 5 3 0 3 9 14 21 23 25 27 26 22 20 19 21 17 12 7 359 353 317 302 301 287 272 244 229 222 222
280 101 100 103 97 49 38 26 26 36 27 24 17 17 4 352 347 350 1 10 22 26 30 30 30 29 29 30 29 31 30 31 37 43 43 32 30 32 31 24 310 264 249 244
359 141 147 143 155 34 45 32 26 26 16 16 31 31 351 339 345 0 9 14 24 27 30 32 33 32 32 33 35 37 36 38 45 49 46 40 41 42 39 37 31 19 330 282
170 185 210 131 169 225 60 26 14 15 14 3 15 345 327 335 345 355 2 10 22 25 28 31 33 33 32 32 32 36 36 40 46 48 47 43 44 45 42 43 45 41 40 36
201 189 242 166 199 73 71 69 324 322 352 359 340 323 324 322 320 355 14 8 12 14 17 24 28 32 34 37 38 42 43 44 47 47 48 45 46 49 49 49 46 41 44 47
308 228 225 246 156 123 174 187 242 293 70 53 338 340 343 326 223 68 28 8 359 358 0 8 14 21 31 32 28 40 48 51 49 45 45 46 47 47 46 45 44 40 45 52
129 223 238 228 249 140 138 134 170 246 140 101 352 354 352 343 53 38 2 350 349 350 352 354 0 14 26 27 24 37 46 49 49 45 45 46 46 43 41 40 39 41 46 48
199 199 224 231 243 116 128 140 194 236 86 79 1 355 356 6 2 339 336 343 346 346 346 344 350 5 9 7 13 33 41 45 44 41 42 41 41 41 36 34 33 32 39 42
246 217 207 220 227 156 147 170 212 41 69 57 7 357 349 343 337 340 343 347 349 350 350 345 342 349 353 354 357 28 41 40 42 42 42 41 37 32 30 33 30 28 27 34
230 254 270 247 32 90 167 189 117 78 243 41 351 345 335 331 338 342 343 346 349 348 349 346 338 332 337 352 347 0 36 31 37 47 47 41 48 46 35 33 34 34 32 32
192 199 233 238 219 195 191 196 197 213 240 296 313 320 321 329 337 342 344 346 348 349 347 339 332 332 339 343 332 328 347 284 343 41 40 38 41 50 54 47 40 39 33 29
202 186 217 231 190 187 204 204 197 195 210 238 278 309 326 332 339 344 344 349 347 343 341 337 334 331 328 330 329 324 302 268 321 43 50 45 48 47 56 67 50 41 52 26
194 195 199 208 184 186 183 185 187 193 201 210 255 317 341 339 341 343 346 347 343 340 338 338 337 332 331 334 334 337 296 267 301 45 49 47 52 54 54 80 109 88 47 38